STARLINK-2343, 47884

Orbit data source: Space-Track

STARLINK-2343, 47884 is a payload satellite owned by SpaceX/Seattle (US) in LEO that was launched on Sun, 14 Mar 2021 UTC via an FALCON 9 launch vehicle from the Air Force Eastern Test Range (AFETR). Payload-class satellites include a variety of spacecraft equipped with specific instruments for various scientific and technological missions. These include communications satellites like Starlink; space stations such as the ISS; scientific satellites like the Hubble; Earth observation satellites from companies like Planet Labs, Umbra, and HawkEye 360; GPS; miniature CubeSats for education and research; and military/defense satellites.

Loading next visibility...
Identifier
47884, 2021-021AA
Orbit
LEO
Country
Flag of USUS
Related business
Manufacturer
SpaceX/Seattle
Mission
Operational Commercial Communications
Bus & Motor
STARLINK, Unknown motor
Mass
260 kg wet, ~248 kg dry
Launch date (UTC)
2021-03-14 (5 years ago)
Launch vehicle
FALCON 9
Launch site
Air Force Eastern Test Range (AFETR)
Object type
Payload
Rocket body
Debris
Shape & HBR
Box + 1 Pan, 10.1 m
Radar Cross Section
13.562 m², Large (>1 m²)

Expand to show TLE details & history
Last TLE update: 2 days ago

TLE from 2 days ago
0 STARLINK-2343
1 47884U 21021AA  26171.29426238  .00001226  00000-0  51261-4 0  9990
2 47884  53.1595 163.6833 0001246  92.3215 267.7929 15.31697926291773
Epoch: 2026-06-20T07:03Z
TLE epoch observation values (Epoch: 2026-06-20T07:03:44.269Z)
Latitude
-0.00003°
Longitude
149.23787°
Altitude
471.679 km
Speed
7.631 km/s
True Right ascension
10h 54m 43s
True Declination
0° 00' 00"
Sunlit
Object was in daylight at epoch
Visualization orbit readout
Latitude
Unknown
Longitude
Unknown
Altitude
Unknown
Speed
Unknown
Apparent Right ascension
Unknown
Apparent Declination
Unknown
Sunlit
N/A
Visualization observer readout
Local Sidereal Time
21:30:35
Azimuth
Unknown
Elevation
Unknown
Doppler factor
Unknown
Orbital elements
Apogee altitude
471.856 km
Perigee altitude
470.149 km
Semi-major axis
6,849.14 km
Eccentricity
0.00012
Inclination
53.1595°
RAAN
163.6833°
Arg. of periapsis
92.3215°
True anomaly
267.77863°
Mean anomaly
267.7929°
Eccentric anomaly
267.78577°
Mean motion
3.82903 °/min
Orbital period
94.02 mins
BSTAR
0.000051261
Loading maneuver chart data...
Computing Atmospheric mass density...

Documentation

Showing up to 5 results
|